Location: Capel Gartheli
(52.1833°N, 4.0667°W)
Time: 06:28:02
(UTC+00:00)

Cosmos 1727 Rocket - Pass Details

Date: 18 February 2020
Orbit: 962 x 996 km, 82.9° (Epoch: 30 March)

Event Time Altitude Azimuth Distance (km) Brightness Sun altitude
Rises 04:58:04 0° 178° (S) 3,649 6.9 -23.4°
Reaches altitude 10° 05:00:35 10° 176° (S) 2,703 6.2 -23.0°
Maximum altitude 05:06:42 68° 95° (E) 1,036 4.3 -22.1°
Drops below altitude 10° 05:12:51 10° 14° (NNE) 2,711 6.6 -21.1°
Sets 05:15:22 0° 12° (NNE) 3,661 7.3 -20.8°
